Location: Tel Aviv
(32.0670°N, 34.7670°E)
Time: 01:26:14
(UTC+03:00)

ISS - Visible Passes

Search period start: 21 September 2018 00:00
Search period end: 01 October 2018 00:00
Orbit: 403 x 408 km, 51.6° (Epoch: 20 September)

Date Brightness Start Highest point End Pass type
(mag) Time Alt. Az. Time Alt. Az. Time Alt. Az.
21 Sep -2.8 19:06:06 10° S 19:08:57 28° SE 19:11:49 10° ENE visible
21 Sep -1.2 20:42:53 10° W 20:45:06 20° NW 20:45:06 20° NW visible
22 Sep -2.5 19:50:22 10° WSW 19:53:29 39° NW 19:56:06 13° NNE visible
23 Sep -3.8 18:58:18 10° SW 19:01:36 89° NNW 19:04:54 10° NE visible
23 Sep -0.6 20:38:12 10° NW 20:38:31 10° NNW 20:38:51 10° NNW visible
24 Sep -1.0 19:44:10 10° WNW 19:46:24 17° NW 19:48:38 10° N visible
